Location: Broughton
(51.0833°N, 1.5500°W)
Time: 09:57:20
(UTC+00:00)

Daily predictions for brighter satellites

Satellite Brightness Start Highest point End
(mag) Time Altitude Azimuth Time Altitude Azimuth Time Altitude Azimuth
Nadezhda 4 Rocket 4.1 16:25:01 10° N 16:31:24 84° E 16:37:45 10° S
Cosmos 1464 Rocket 4.2 16:27:46 10° S 16:34:09 90° WSW 16:40:35 10° N
Cosmos 44 Rocket 3.7 16:29:32 10° NW 16:34:18 43° NE 16:38:55 10° ESE
COSMOS 2406 3.5 16:35:37 10° S 16:41:13 56° ESE 16:46:48 10° NE
Cosmos 468 Rocket 4.0 16:37:18 10° SSW 16:42:28 78° ESE 16:47:43 10° NNE
Meteor 1-31 Rocket 3.9 16:42:15 10° S 16:45:57 49° W 16:49:43 10° NNW
NOSS 2-2 (C) 4.5 16:43:29 10° NW 16:48:28 79° SW 16:55:30 10° SE
Cosmos 1092 Rocket 4.0 16:45:24 10° N 16:51:47 74° ENE 16:58:06 10° SSE
Cosmos 1898 Rocket 4.3 16:46:53 10° NNW 16:52:02 58° WSW 16:57:07 10° S
CZ-4B R/B 4.0 16:50:46 10° ESE 16:55:12 27° ENE 16:59:36 10° N
Meteor 2-21 4.4 16:49:18 10° N 16:55:21 62° ENE 17:01:20 10° SSE
USA 267 4.0 16:50:43 10° ENE 16:56:47 39° SE 17:02:50 10° SSW
CZ-2D R/B 4.2 16:53:58 10° ESE 16:57:12 26° ENE 17:00:26 10° N
ATLAS CENTAUR R/B 3.1 16:47:27 10° SW 16:57:36 67° SE 17:01:30 12° ENE
SL-16 R/B 4.4 16:54:08 10° N 16:58:56 24° NW 17:03:44 10° WSW
USA 306 2.9 16:55:15 10° WNW 16:59:30 64° NNE 17:03:43 10° E
Cosmos 1939 Rocket 2.9 16:55:46 10° SSE 16:59:46 57° ENE 17:03:45 10° N
Cosmos 1633 Rocket 3.7 16:56:27 10° N 17:00:28 34° ENE 17:04:29 10° SE
COSMO-SKYMED 1 4.3 16:59:10 11° ENE 17:00:50 14° E 17:03:03 10° ESE
Cosmos 1151 Rocket 3.9 16:58:30 10° SSE 17:02:14 29° E 17:06:01 10° NNE
Cosmos 1666 3.2 16:58:52 10° N 17:02:18 34° ENE 17:05:43 10° SE
Cosmos 2360 Rocket 3.3 16:59:16 10° NNW 17:03:47 23° NE 17:08:15 10° E
Cosmos 1782 3.0 17:00:21 10° S 17:04:12 50° E 17:08:04 10° NNE
ISS -1.3 17:01:59 10° W 17:04:51 25° SW 17:07:42 10° SSE
SeaSat 1 3.5 17:03:47 10° NNE 17:08:27 43° NW 17:13:05 10° WSW
SL-08 R/B 3.3 17:04:03 10° NNE 17:08:47 87° WNW 17:13:24 10° SSW
Cosmos 1763 Rocket 3.8 17:03:46 10° SW 17:08:49 65° WNW 17:13:58 10° NNE
Cosmos 1818 3.5 17:04:25 10° NW 17:09:56 72° NE 17:15:23 10° SE
PAYLOAD B 4.5 17:04:38 10° SE 17:09:58 47° ENE 17:15:18 10° N
YAOGAN 1 4.3 17:11:21 14° NE 17:11:21 14° NE 17:13:11 10° NNE
NOAA 12 4.3 17:07:07 10° SSE 17:12:27 80° WSW 17:17:47 10° NNW
Meteor 2-14 Rocket 4.4 17:08:32 10° N 17:14:40 84° ENE 17:20:45 10° SSE
Cosmos 1627 Rocket 4.5 17:10:03 10° N 17:16:15 89° W 17:22:23 10° S
ATLAS 5 CENTAUR R/B 2.8 17:07:11 10° NW 17:16:50 53° NNE 17:19:39 14° E
Cosmos 2279 Rocket 4.2 17:12:28 10° SSE 17:18:20 47° E 17:24:13 10° NNE
Cosmos 841 Rocket 3.4 17:13:55 10° SSW 17:19:03 76° ESE 17:24:12 10° NNE
ERBS 3.4 17:16:26 10° WNW 17:19:15 27° N 17:20:46 19° NE
CZ-4C R/B 4.2 17:15:54 10° N 17:19:32 44° WNW 17:22:59 10° SW
Meteor PRIRODA 4.4 17:16:01 10° S 17:19:34 54° W 17:23:08 10° NNW
USA 307 2.9 17:15:50 10° WNW 17:20:06 70° NNE 17:23:33 15° E
Spot 1 4.4 17:15:34 10° NNE 17:20:22 86° WNW 17:25:24 10° SSW
CZ-4C R/B 3.2 17:13:43 10° NW 17:20:47 78° SW 17:29:09 10° SE
Lacrosse 5 rocket 1.4 17:19:22 10° WNW 17:23:14 74° SW 17:27:19 10° SE
NOSS 3-4 (A) 4.5 17:18:25 10° NW 17:24:14 33° NNE 17:28:52 17° ENE
NOSS 3-4 (C) 4.5 17:18:31 10° NW 17:24:20 33° NNE 17:28:56 17° ENE
ATLAS 2AS CENTAUR R/B 3.9 17:19:55 10° WNW 17:26:34 31° N 17:31:18 16° NE
Cosmos 2322 Rocket 2.6 17:21:35 10° NNW 17:27:00 41° NE 17:32:22 10° ESE
COSMOS 2428 4.2 17:23:38 10° N 17:27:17 17° NNE 17:28:43 15° NE
Cosmos 1933 Rocket 4.5 17:23:50 10° N 17:27:30 26° ENE 17:31:08 10° SE
Cosmos 2208 Rocket 4.5 17:23:30 10° S 17:28:35 43° ESE 17:32:51 15° NE
Cosmos 2150 Rocket 4.1 17:23:58 10° NNW 17:29:03 51° ENE 17:34:08 10° SE
Cosmos 1666 Rocket 3.5 17:25:42 10° N 17:30:10 77° E 17:34:33 10° SSE
Cosmos 1980 Rocket 3.0 17:24:45 10° NW 17:30:18 56° WSW 17:35:47 10° S
AQUARIUS 4.1 17:26:36 10° SSE 17:31:06 90° ENE 17:35:38 10° NNW
Cosmos 1328 Rocket 4.0 17:28:04 10° SSE 17:32:14 41° E 17:36:01 12° NNE
USA 234 3.3 17:25:43 10° ESE 17:32:18 87° SSW 17:38:52 10° WNW
Cosmos 1470 Rocket 3.9 17:29:25 10° N 17:33:43 43° ENE 17:38:00 10° SSE
Cosmos 1544 3.8 17:30:34 10° N 17:33:49 30° ENE 17:37:04 10° SE
Cosmos 1125 Rocket 3.6 17:30:07 10° NNW 17:35:17 54° ENE 17:40:27 10° SE
Cosmos 2026 Rocket 4.3 17:30:28 10° NNW 17:36:34 68° W 17:42:33 10° S
CORIOLIS 4.3 17:31:14 10° SSE 17:36:39 82° WSW 17:42:08 10° NNW
Meteor 1-26 Rocket 4.4 17:31:56 10° SSW 17:37:57 86° WNW 17:44:03 10° NNE
Cosmos 1812 2.6 17:34:09 10° S 17:37:59 70° E 17:41:45 11° NNE
PSLV R/B 3.5 17:35:28 10° SSE 17:39:10 80° ENE 17:42:58 10° NNW
H-2A R/B 1.9 17:34:57 10° SSE 17:40:00 69° ENE 17:44:58 10° N
Cosmos 1634 Rocket 4.1 17:34:21 10° S 17:40:43 85° W 17:47:05 10° N
Meteor 1-11 Rocket 4.0 17:35:20 10° N 17:40:43 44° ENE 17:46:11 10° SE
Okean O Rocket 2.0 17:37:39 10° SE 17:41:49 41° ENE 17:46:02 10° N
ATLAS CENTAUR R/B 3.7 17:39:28 10° NW 17:42:15 16° N 17:44:13 13° NNE
USA 308 2.8 17:38:32 10° WNW 17:42:49 81° NNE 17:45:21 24° ESE
GEOS 3 Rocket 4.3 17:41:55 23° ENE 17:44:20 34° NNE 17:48:58 10° NW
Sich 1 4.3 17:41:26 10° NNW 17:45:32 44° W 17:49:38 10° SSW
SL-16 R/B 2.1 17:42:05 10° NNW 17:47:46 68° ENE 17:53:25 10° SE
Cosmos 2237 Rocket 4.1 17:46:05 10° N 17:48:31 13° NNE 17:49:04 12° NNE
SKYMED 2 4.1 17:47:47 27° NE 17:49:23 36° E 17:53:24 10° SSE
Cosmos 540 Rocket 4.2 17:46:04 10° SW 17:51:02 50° WNW 17:56:02 10° NNE
ARGOS 3.2 17:46:39 10° SE 17:51:56 56° ENE 17:57:13 10° N
Cosmos 2082 Rocket 2.3 17:46:30 10° SW 17:52:11 77° WNW 17:56:56 15° NNE
Meteor 1-5 Rocket 4.5 17:46:49 10° NNW 17:52:49 80° W 17:58:40 10° S
SMAP 4.1 17:50:57 10° S 17:55:26 48° W 17:59:59 10° NNW
CZ-4 R/B 3.6 17:58:56 12° N 17:58:56 12° N 17:59:18 10° N
deb Chang Zheng 4 3.5 17:53:05 10° SSE 17:57:20 64° ENE 18:01:38 10° N
COSMOS 2455 3.2 17:54:25 10° SW 18:00:25 66° NW 18:04:54 19° NNE
Cosmos 1833 Rocket 4.0 18:00:35 10° WSW 18:05:45 36° NW 18:10:34 12° NNE
Feng Yun 1-1 Rocket 4.4 18:01:11 10° SE 18:06:53 53° ENE 18:12:30 10° N
USA 305 2.9 18:02:52 10° WNW 18:07:08 76° SSW 18:08:52 34° SE
Cosmos 2333 Rocket 2.9 18:02:17 10° NNW 18:07:28 32° NE 18:08:05 32° ENE
Cosmos 1356 Rocket 3.3 18:04:15 10° N 18:08:27 65° ENE 18:12:41 10° SSE
SL-16 R/B 4.3 18:09:17 10° N 18:10:28 11° N 18:11:02 10° NNE
CZ-2C R/B 2.5 18:06:50 19° NNE 18:10:35 61° E 18:15:42 10° S
Cosmos 2219 Rocket 3.1 18:10:17 10° NNW 18:15:05 30° NE 18:15:05 30° NE
Cosmos 2180 Rocket 4.5 18:09:55 10° S 18:16:14 89° E 18:22:32 10° N
Cosmos 1655 Rocket 4.0 18:09:52 10° N 18:16:20 85° E 18:22:41 10° S
Aureole 3 Rocket 3.9 18:14:06 10° SSE 18:18:42 48° E 18:25:09 10° NNE
Cosmos 1515 Rocket 3.4 18:14:55 10° S 18:19:18 67° E 18:20:26 47° NE
Cosmos 921 Rocket 2.8 18:17:27 10° SSW 18:21:40 86° ESE 18:22:47 49° NNE
Spot 2 4.4 18:23:28 23° SE 18:26:32 58° ENE 18:31:30 10° N
CZ-4 R/B 4.4 18:22:28 10° SSE 18:26:37 81° WSW 18:30:47 10° NNW
Cosmos 371 Rocket 3.5 18:29:50 10° NNW 18:33:50 50° NNE 18:33:50 50° NNE
CZ-4B R/B 3.7 18:30:09 10° S 18:35:27 59° WSW 18:40:43 10° NNW
Cosmos 2333 4.4 18:29:53 10° NNW 18:35:31 49° NE 18:35:32 49° NE
COSMO-SKYMED 1 2.6 18:36:23 47° N 18:37:34 80° WNW 18:41:55 10° SSW
USA 306 3.4 18:35:13 10° WNW 18:39:21 53° SSW 18:39:52 50° S
Landsat 5 4.2 18:41:36 40° S 18:41:36 40° S 18:44:11 10° SSW
USA 267 3.2 18:37:47 42° ENE 18:40:14 86° NNW 18:46:48 10° WSW
MOS 1-B Rocket 4.3 18:34:38 10° NNE 18:40:33 70° WNW 18:47:20 10° SSW
Meteor 2-15 Rocket 4.4 18:37:53 10° S 18:44:01 88° W 18:50:08 10° N
APEX 4.4 18:40:53 10° SW 18:43:02 33° SW 18:43:02 33° SW
Meteor 1-27 Rocket 3.5 18:39:46 10° S 18:45:15 76° E 18:46:30 54° NNE
YAOGAN 1 3.8 18:48:30 31° NNW 18:48:30 31° NNW 18:50:50 10° NNW
Cosmos 836 Rocket 4.3 18:42:43 10° SSW 18:48:01 79° ESE 18:48:20 75° ENE
Cosmos 2360 Rocket 2.1 18:42:53 10° NNW 18:48:37 87° ENE 18:50:08 51° SSE
Cosmos 2237 4.4 18:46:21 10° NNW 18:52:03 70° WSW 18:55:53 21° SSE
Cosmos 1536 4.4 18:50:19 10° NNW 18:52:18 27° NNW 18:52:18 27° NNW
USA 307 3.9 18:55:50 10° WNW 18:59:35 43° SW 18:59:35 43° SW
Lacrosse 5 rocket 4.1 18:59:22 10° W 19:01:49 16° SW 19:04:20 10° SSW
SL-08 RB Rocket 4.5 18:58:51 10° S 19:03:21 51° W 19:07:50 10° NNW
Cosmos 2322 Rocket 3.2 19:05:44 10° NW 19:11:07 44° WSW 19:16:29 10° S
COSMOS 2428 3.8 19:07:20 10° NNW 19:10:45 34° N 19:10:45 34° N
NOSS 3-4 (A) 3.7 19:09:26 10° NW 19:16:12 72° NE 19:16:19 72° NE
NOSS 3-4 (C) 3.7 19:09:32 10° NW 19:16:19 72° NE 19:16:24 72° NE
Okean O Rocket 3.7 19:14:30 10° SSW 19:18:18 27° W 19:22:07 10° NW
ATLAS 2AS CENTAUR R/B 3.3 19:12:10 10° NW 19:18:44 45° NNE 19:18:44 45° NNE
Cosmos 1867 4.0 19:14:56 10° SW 19:19:10 55° SW 19:19:10 55° SW
GEOS 3 Rocket 4.0 19:23:03 59° WNW 19:23:03 59° WNW 19:27:18 10° NW
ATLAS CENTAUR R/B 4.1 19:19:21 10° NNW 19:20:20 14° NNW 19:20:20 14° NNW
NOSS 3-3 (A) 4.4 19:21:49 10° SSW 19:25:51 48° SSW 19:25:51 48° SSW
NOSS 3-3 (C) 4.4 19:21:55 10° SSW 19:25:55 48° SSW 19:25:55 48° SSW
ATLAS CENTAUR R/B 3.9 19:23:34 10° W 19:27:08 26° NW 19:27:08 26° NW
SL-16 R/B 4.3 19:26:54 10° NW 19:31:24 25° WSW 19:35:53 10° SSW
Cosmos 2237 Rocket 4.2 19:29:20 10° NNW 19:30:53 17° N 19:30:53 17° N
Cosmos 2082 Rocket 4.1 19:32:57 10° W 19:37:14 21° NW 19:38:48 19° NNW
Cosmos 2333 Rocket 3.4 19:46:26 10° NW 19:50:07 39° NW 19:50:07 39° NW
Cosmos 2219 Rocket 3.8 19:54:03 10° NW 19:56:49 30° NW 19:56:49 30° NW
USA 267 4.3 20:25:07 40° WNW 20:25:07 40° WNW 20:29:22 10° W
